This is the latest recevied weather packets stored in our database for station/object KM7BEO. If no packets are shown the sender has not sent any weather packets the latest 10 day(s).
| Time | Temp. | Humidity | Pressure | Rain* | Wind** | Luminosity | Snow |
|---|---|---|---|---|---|---|---|
| 1777755326 | 20° C | 60% | 1015.7 hPa | 0 mm | - | 396 W/m² | - |
| 1777755024 | 20° C | 58% | 1015.6 hPa | 0 mm | - | 678 W/m² | - |
| 1777754720 | 20° C | 57% | 1015.6 hPa | 0 mm | - | 678 W/m² | - |
| 1777754418 | 20.56° C | 57% | 1015.6 hPa | 0 mm | - | 679 W/m² | - |
| 1777754115 | 20.56° C | 57% | 1015.8 hPa | 0 mm | - | 681 W/m² | - |
| 1777753812 | 20° C | 59% | 1015.8 hPa | 0 mm | - | 681 W/m² | - |
| 1777753508 | 20° C | 60% | 1015.6 hPa | 0 mm | - | 682 W/m² | - |
| 1777753207 | 19.44° C | 61% | 1015.8 hPa | 0 mm | - | 682 W/m² | - |
| 1777752902 | 19.44° C | 59% | 1015.8 hPa | 0 mm | - | 681 W/m² | - |
| 1777752599 | 19.44° C | 59% | 1015.8 hPa | 0 mm | - | 682 W/m² | - |
| 1777752295 | 20° C | 58% | 1015.9 hPa | 0 mm | - | 679 W/m² | - |
| 1777751992 | 20° C | 60% | 1016 hPa | 0 mm | - | 679 W/m² | - |
| 1777751690 | 19.44° C | 60% | 1016.1 hPa | 0 mm | - | 675 W/m² | - |
| 1777751385 | 19.44° C | 63% | 1016.3 hPa | 0 mm | - | 672 W/m² | - |
| 1777751083 | 20° C | 59% | 1016.1 hPa | 0 mm | - | 671 W/m² | - |
| 1777750778 | 20° C | 61% | 1016.1 hPa | 0 mm | - | 667 W/m² | - |
| 1777750476 | 19.44° C | 60% | 1016.2 hPa | 0 mm | - | 662 W/m² | - |
| 1777750171 | 19.44° C | 60% | 1016.4 hPa | 0 mm | - | 660 W/m² | - |
| 1777749869 | 18.89° C | 61% | 1016.5 hPa | 0 mm | - | 655 W/m² | - |
| 1777749565 | 19.44° C | 61% | 1016.4 hPa | 0 mm | - | 651 W/m² | - |
| 1777749264 | 18.89° C | 63% | 1016.2 hPa | 0 mm | - | 645 W/m² | - |
| 1777748961 | 19.44° C | 61% | 1016.6 hPa | 0 mm | - | 640 W/m² | - |
| 1777748658 | 18.89° C | 63% | 1016.5 hPa | 0 mm | - | 636 W/m² | - |
| 1777748354 | 18.89° C | 63% | 1016.6 hPa | 0 mm | - | 596 W/m² | - |
| 1777748049 | 18.89° C | 64% | 1016.6 hPa | 0 mm | - | 623 W/m² | - |
* Rain latest hour (hover to see other rain measurements)
** Current wind speed in m/s (hover to see current wind gust speed)